Watertown, NY

10:00 PM EST on December 09, 2019 (GMT -0500)
Watertown International

Weather History for KART - November, 2019

Change the Weather History Date:

Sunday, November 17, 2019

  Actual Average Record
Temperature  
Mean Temperature 24 °F 38 °F  
Max Temperature 40 °F 46 °F 68 °F (1987)
Min Temperature 8 °F 30 °F 13 °F (1972)
Degree Days  
Heating Degree Days 41 27  
Month to date heating degree days 573 414  
Since 1 July heating degree days 1214 1210  
Cooling Degree Days 0 0  
Month to date cooling degree days 0 0  
Year to date cooling degree days 348 362  
Moisture  
Dew Point 14 °F    
Average Humidity 63    
Maximum Humidity 84    
Minimum Humidity 34    
Precipitation  
Precipitation 0.00 in 0.13 in 0.75 in (1965)
Month to date precipitation 0.98 2.11  
Year to date precipitation 40.25 31.28  
Sea Level Pressure  
Sea Level Pressure 30.31 in    
Wind  
Wind Speed 4 mph ()    
Max Wind Speed 12 mph    
Max Gust Speed 17 mph    
Visibility 10.0 miles    
Events      
T = Trace of Precipitation, MM = Missing Value Source: Averaged Metar Reports

Daily Weather History Graph

Daily Weather History Graph

Search for Another Location

Airport or City:

Astronomy

Nov. 17, 2019 Rise Set
Actual Time 7:01 AM EST 4:36 PM EST
Civil Twilight 6:30 AM EST 5:07 PM EST
Nautical Twilight 5:54 AM EST 5:42 PM EST
Astronomical Twilight 5:20 AM EST 6:16 PM EST
Moon 9:07 PM EST (11/17) 11:48 AM EST (11/17)
Length of Visible Light 10h 37m
Length of Day
9h 34m
Waning Gibbous, 73% of the Moon is Illuminated
Nov 17
Waning Gibbous
Nov 19
Last Quarter
Nov 26
New
Dec 4
First Quarter
Dec 12
Full

Hourly Weather History & Observations

Time (EST) Temp. Windchill Dew Point Humidity Pressure Visibility Wind Dir Wind Speed Gust Speed Precip Events Conditions
12:56 AM 12.0 °F 2.7 °F 3.9 °F 70% 30.49 in 10.0 mi ENE 5.8 mph - N/A   Clear
1:56 AM 12.0 °F - 5.0 °F 73% 30.49 in 10.0 mi Calm Calm - N/A   Clear
2:56 AM 10.9 °F 2.9 °F 5.0 °F 77% 30.48 in 10.0 mi ENE 4.6 mph - N/A   Clear
3:56 AM 10.9 °F 2.9 °F 3.9 °F 73% 30.45 in 10.0 mi East 4.6 mph - N/A   Clear
4:56 AM 10.0 °F 3.6 °F 6.1 °F 84% 30.44 in 10.0 mi East 3.5 mph - N/A   Clear
5:56 AM 12.0 °F - 7.0 °F 80% 30.44 in 10.0 mi Calm Calm - N/A   Clear
6:56 AM 9.0 °F - 3.9 °F 80% 30.44 in 10.0 mi Calm Calm - N/A   Clear
7:56 AM 12.0 °F 5.9 °F 8.1 °F 84% 30.43 in 10.0 mi East 3.5 mph - N/A   Clear
8:56 AM 19.0 °F - 10.0 °F 68% 30.42 in 10.0 mi Calm Calm - N/A   Clear
9:56 AM 26.1 °F 20.5 °F 9.0 °F 49% 30.40 in 10.0 mi East 4.6 mph - N/A   Clear
10:56 AM 33.1 °F 27.7 °F 10.9 °F 40% 30.36 in 10.0 mi NE 5.8 mph - N/A   Clear
11:56 AM 39.0 °F 32.3 °F 14.0 °F 36% 30.31 in 10.0 mi South 10.4 mph - N/A   Clear
12:56 PM 39.0 °F 33.4 °F 15.1 °F 38% 30.28 in 10.0 mi South 8.1 mph - N/A   Clear
1:56 PM 39.9 °F 34.5 °F 18.0 °F 41% 30.25 in 10.0 mi SE 8.1 mph - N/A   Clear
2:56 PM 39.9 °F 35.8 °F 21.9 °F 49% 30.23 in 10.0 mi SSE 5.8 mph - N/A   Clear
4:56 PM 35.1 °F 30.1 °F 21.0 °F 57% 30.20 in 10.0 mi SE 5.8 mph - N/A   Clear
5:56 PM 34.0 °F 28.0 °F 19.9 °F 56% 30.19 in 10.0 mi East 6.9 mph - N/A   Clear
7:56 PM 33.1 °F 27.7 °F 21.9 °F 64% 30.15 in 10.0 mi SE 5.8 mph - N/A   Clear
8:56 PM 33.1 °F 26.9 °F 23.0 °F 66% 30.12 in 10.0 mi ESE 6.9 mph - N/A   Clear
9:56 PM 35.1 °F 27.9 °F 24.1 °F 64% 30.10 in 10.0 mi SE 9.2 mph - N/A   Overcast
10:56 PM 34.0 °F 28.8 °F 24.1 °F 67% 30.08 in 10.0 mi SE 5.8 mph - N/A   Overcast
11:56 PM 35.1 °F 29.3 °F 24.1 °F 64% 30.06 in 10.0 mi ESE 6.9 mph - N/A   Overcast